User: anonymous   Login
Location: Desert Center
(33.7130°N, 115.4010°W)
Time: 10:54:19
(UTC-08:00)
Language:

USA 215 - Orbit

View from above orbital plane
View from above orbital plane
View from above satellite
View from above satellite

Ground track
Ground track

The orbit data is extracted from the following two-line orbital elements,

1 37162U 10046A   15023.25396481 0.00000050  00000-0  89486-4 0    06
2 37162 122.9945 337.0270 0007247 157.5841 202.4159 13.41460703    08
Epoch (UTC): 23 January 2015 06:05:42
Eccentricity: 0.0007247
inclination: 122.9945°
perigee height: 1098 km
apogee height: 1109 km
right ascension of ascending node: 337.0270°
argument of perigee: 157.5841°
revolutions per day: 13.41460703
mean anomaly at epoch: 202.4159°
orbit number at epoch: 0

The dashed part of the orbit path shows where the satellite is in the earth's shadow,  

DLR